Chipley, FL

4:14 AM CDT on May 24, 2017 (GMT -0500)
Chipley

Weather History for KVSH - January, 2014

Change the Weather History Date:

Monday, January 27, 2014

  Actual Average (KDHN) Record (KDHN)
Temperature  
Mean Temperature - -  
Max Temperature - 62 °F 80 °F (1944)
Min Temperature - 35 °F 12 °F (1940)
Moisture  
Dew Point -    
Average Humidity    
Maximum Humidity    
Minimum Humidity    
Precipitation  
Precipitation 0.34 in - - ()
Sea Level Pressure  
Sea Level Pressure 29.96 in    
Wind  
Wind Speed 7 mph (NNE)    
Max Wind Speed 10 mph    
Max Gust Speed 20 mph    
Visibility 9 miles    
Events      
Averages and records for this station are not official NWS values.
T = Trace of Precipitation, MM = Missing Value Source: NWS Daily Summary

Daily Weather History Graph

Daily Weather History Graph

Search for Another Location

Airport or City:

Trip Planner

Search our weather history database for the weather conditions in past years. The results will help you decide how hot, cold, wet, or windy it might be!

Date:

Astronomy

Jan. 27, 2014 Rise Set
Actual Time 6:36 AM CST 5:14 PM CST
Civil Twilight 6:11 AM CST 5:39 PM CST
Nautical Twilight 5:42 AM CST 6:08 PM CST
Astronomical Twilight 5:13 AM CST 6:37 PM CST
Moon 3:14 AM CST (1/27) 2:02 PM CST (1/27)
Length of Visible Light 11h 28m
Length of Day
10h 37m
Waning Crescent, 14% of the Moon is Illuminated
Jan 27
Waning Crescent
Jan 30
New
Feb 6
First Quarter
Feb 14
Full
Feb 22
Last Quarter

Hourly Weather History & Observations

Time (CST) Temp. Dew Point Humidity Pressure Visibility Wind Dir Wind Speed Gust Speed Precip Events Conditions
12:15 AM - - N/A% 29.90 in 10.0 mi SSE 6.9 mph - N/A   Mostly Cloudy
12:35 AM - - N/A% 29.90 in 10.0 mi SSE 6.9 mph - N/A   Overcast
12:55 AM - - N/A% 29.90 in 10.0 mi SSE 5.8 mph - N/A   Overcast
1:15 AM - - N/A% 29.90 in 10.0 mi SSE 6.9 mph - N/A   Overcast
1:35 AM - - N/A% 29.90 in 10.0 mi SSE 5.8 mph - N/A   Overcast
1:55 AM - - N/A% 29.90 in 10.0 mi South 6.9 mph - N/A   Overcast
2:15 AM - - N/A% 29.90 in 10.0 mi South 5.8 mph - N/A   Mostly Cloudy
2:35 AM - - N/A% 29.89 in 10.0 mi South 5.8 mph - N/A   Overcast
2:55 AM - - N/A% 29.88 in 10.0 mi SSE 5.8 mph - N/A   Overcast
3:15 AM - - N/A% 29.88 in 10.0 mi South 5.8 mph - N/A   Overcast
3:35 AM - - N/A% 29.88 in 7.0 mi SSE 6.9 mph - 0.01 in   Overcast
3:55 AM - - N/A% 29.88 in 10.0 mi South 6.9 mph - 0.01 in   Overcast
4:15 AM - - N/A% 29.87 in 10.0 mi South 5.8 mph - N/A   Overcast
4:35 AM - - N/A% 29.87 in 6.0 mi South 8.1 mph - 0.01 in   Overcast
4:55 AM - - N/A% 29.87 in 9.0 mi SSE 4.6 mph - 0.02 in   Overcast
5:15 AM - - N/A% 29.87 in 10.0 mi South 8.1 mph - 0.01 in   Overcast
5:35 AM - - N/A% 29.88 in 10.0 mi South 8.1 mph - 0.02 in   Overcast
5:55 AM - - N/A% 29.90 in 9.0 mi WNW 6.9 mph - 0.02 in   Mostly Cloudy
6:15 AM - - N/A% 29.90 in 2.0 mi Calm Calm - 0.14 in   Overcast
6:35 AM - - N/A% 29.91 in 5.0 mi Calm Calm - 0.25 in   Overcast
6:55 AM - - N/A% 29.91 in 8.0 mi South 4.6 mph - 0.26 in   Overcast
7:15 AM - - N/A% 29.92 in 6.0 mi South 6.9 mph - N/A   Mostly Cloudy
7:35 AM - - N/A% 29.92 in 5.0 mi South 5.8 mph - 0.01 in   Mostly Cloudy
7:55 AM - - N/A% 29.93 in 6.0 mi South 3.5 mph - 0.01 in   Mostly Cloudy
8:15 AM - - N/A% 29.93 in 5.0 mi South 5.8 mph - N/A   Overcast
8:35 AM - - N/A% 29.93 in 5.0 mi South 5.8 mph - N/A   Overcast
8:55 AM - - N/A% 29.95 in 5.0 mi SW 4.6 mph - N/A   Mostly Cloudy
9:15 AM - - N/A% 29.96 in 8.0 mi WNW 4.6 mph - N/A   Overcast
9:35 AM - - N/A% 29.96 in 5.0 mi North 3.5 mph - N/A   Overcast
9:55 AM - - N/A% 29.96 in 5.0 mi NNW 3.5 mph - N/A   Overcast
10:15 AM - - N/A% 29.97 in 4.0 mi NNE 6.9 mph - N/A   Overcast
10:35 AM - - N/A% 29.97 in 1.2 mi North 5.8 mph - N/A   Overcast
10:55 AM - - N/A% 29.97 in 2.5 mi North 4.6 mph - N/A   Overcast
11:15 AM - - N/A% 29.97 in 3.0 mi NNE 6.9 mph - 0.02 in   Overcast
11:35 AM - - N/A% 29.95 in 7.0 mi North 4.6 mph - 0.02 in   Overcast
11:55 AM - - N/A% 29.95 in 9.0 mi NNE 6.9 mph - 0.02 in   Overcast
12:15 PM - - N/A% 29.95 in 10.0 mi North 8.1 mph - N/A   Overcast
12:35 PM - - N/A% 29.94 in 9.0 mi North 8.1 mph - N/A   Overcast
12:55 PM - - N/A% 29.94 in 10.0 mi North 8.1 mph - N/A   Overcast
1:15 PM - - N/A% 29.93 in 10.0 mi North 4.6 mph - N/A   Overcast
1:35 PM - - N/A% 29.93 in 10.0 mi North 5.8 mph - N/A   Overcast
1:55 PM - - N/A% 29.93 in 10.0 mi NNE 9.2 mph - N/A   Overcast
2:15 PM - - N/A% 29.93 in 10.0 mi North 5.8 mph - N/A   Overcast
2:35 PM - - N/A% 29.93 in 10.0 mi North 4.6 mph - N/A   Overcast
2:55 PM - - N/A% 29.94 in 10.0 mi North 6.9 mph - N/A   Overcast
3:15 PM - - N/A% 29.94 in 10.0 mi North 8.1 mph - N/A   Overcast
3:35 PM - - N/A% 29.94 in 10.0 mi North 6.9 mph - N/A   Overcast
3:55 PM - - N/A% 29.95 in 10.0 mi North 5.8 mph - N/A   Overcast
4:15 PM - - N/A% 29.95 in 10.0 mi NNE 9.2 mph - N/A   Overcast
4:35 PM - - N/A% 29.96 in 10.0 mi NNE 8.1 mph - N/A   Overcast
4:55 PM - - N/A% 29.98 in 10.0 mi NNE 9.2 mph - N/A   Overcast
5:15 PM - - N/A% 29.99 in 10.0 mi NNE 8.1 mph - N/A   Overcast
5:35 PM - - N/A% 29.99 in 10.0 mi North 8.1 mph - N/A   Overcast
5:55 PM - - N/A% 29.99 in 10.0 mi North 8.1 mph - N/A   Overcast
6:15 PM - - N/A% 30.01 in 10.0 mi NNE 6.9 mph - N/A   Overcast
6:35 PM - - N/A% 30.02 in 10.0 mi North 9.2 mph - N/A   Overcast
6:55 PM - - N/A% 30.02 in 10.0 mi North 8.1 mph - N/A   Overcast
7:15 PM - - N/A% 30.02 in 10.0 mi NNE 8.1 mph - N/A   Overcast
7:35 PM - - N/A% 30.03 in 10.0 mi North 6.9 mph - N/A   Overcast
7:55 PM - - N/A% 30.04 in 10.0 mi North 8.1 mph - N/A   Overcast
8:15 PM - - N/A% 30.05 in 10.0 mi North 9.2 mph - N/A   Overcast
8:35 PM - - N/A% 30.06 in 10.0 mi North 6.9 mph - N/A   Overcast
8:55 PM - - N/A% 30.07 in 10.0 mi North 9.2 mph - N/A   Overcast
9:15 PM - - N/A% 30.07 in 10.0 mi North 6.9 mph 16.1 mph N/A   Overcast
9:35 PM - - N/A% 30.08 in 10.0 mi NNW 8.1 mph - N/A   Overcast
9:55 PM - - N/A% 30.07 in 10.0 mi NNE 9.2 mph 16.1 mph N/A   Overcast
10:15 PM - - N/A% 30.08 in 10.0 mi North 9.2 mph 19.6 mph N/A   Overcast
10:35 PM - - N/A% 30.08 in 10.0 mi North 9.2 mph 16.1 mph N/A   Overcast
10:55 PM - - N/A% 30.09 in 10.0 mi NNE 10.4 mph - N/A   Overcast
11:15 PM - - N/A% 30.08 in 10.0 mi North 10.4 mph 16.1 mph N/A   Mostly Cloudy
11:35 PM - - N/A% 30.09 in 10.0 mi North 8.1 mph - N/A   Overcast
11:55 PM - - N/A% 30.08 in 10.0 mi North 8.1 mph - N/A   Overcast